Location: Alulod
(14.2076°N, 120.8898°E)
Time: 03:28:37
(UTC+00:00)

Cosmos 2026 Rocket - Pass Details

Date: 13 December 2025
Orbit: 939 x 999 km, 82.9° (Epoch: 15 January)

Event Time Altitude Azimuth Distance (km) Brightness Sun altitude
Rises 20:20:51 0° 180° (S) 3,593 7.2 -26.0°
Reaches altitude 10° 20:23:19 10° 178° (S) 2,646 6.5 -25.4°
Maximum altitude 20:29:21 77° 93° (E) 962 4.0 -24.0°
Drops below altitude 10° 20:35:23 10° 8° (N) 2,653 6.2 -22.6°
Sets 20:37:52 0° 7° (N) 3,602 6.8 -22.1°
